Flag for Thailand Weather past 2 weeks in Udon Thani, Thailand

Now
72 °F

Fog.


Feels Like: 67 °F
Forecast: 77 / 99 °F
Wind: 2 mph from Southwest

Location: Udon Thani Airport

Current Time: Mar 31, 2015 at 7:28:21 AM

Latest Report: Mar 31, 2015 at 6:00 AM


Visibility: 2 mi

Pressure: 29.89 "Hg

Humidity: 94%

Dew point: 70 °F

Location of Udon ThaniLocation

Historic Weather in Udon Thani — Graph

°F

Udon Thani temperature yesterday

Maximum temperature yesterday: 91 °F (at 2:00 PM)
Minimum temperature yesterday: 75 °F (at 6:00 AM)
Average temperature yesterday: 83 °F

Past Weeks' High & Low Weather Summary

 TemperatureHumidityPressure
High100 °F (Mar 20, 2:00 PM)100% (Mar 29, 8:00 PM)30.12 "Hg (Mar 29, 8:00 PM)
Low68 °F (Mar 29, 8:00 PM)32% (Mar 16, 4:00 PM)29.68 "Hg (Mar 18, 4:00 PM)
Average85 °F61%29.90 "Hg
* Reported Mar 16 6:00 AM — Mar 31 6:00 AM, Udon Thani, Weather by CustomWeather, © 2015

Note: Actual official high and low records may vary slightly from our data, if they occured in-between our weather recording intervals... More about our weather records

Advertising

Udon Thani weather history for previous 24 hours

 ConditionsComfort  
Time TempWeatherWind HumidityBarometerVisibility
6:00 AM
Tue, Mar 31
72 °FFog.2 mph94%29.89 "Hg1 mi
10:00 PM
Mon, Mar 30
77 °FClear.2 mph83%29.89 "Hg4 mi
9:00 PM79 °FPassing clouds.No wind79%29.89 "Hg4 mi
8:00 PM79 °FPassing clouds.6 mph79%29.83 "Hg4 mi
7:00 PM81 °FWarm.6 mph74%29.80 "Hg4 mi
6:00 PM82 °FPartly sunny.7 mph66%29.80 "Hg4 mi
5:00 PM86 °FThunderstorms. Passing clouds.5 mph62%29.80 "Hg4 mi
4:00 PM86 °FThunderstorms. Partly sunny.7 mph59%29.80 "Hg4 mi
3:00 PM88 °FPartly sunny.12 mph55%29.83 "Hg4 mi
2:00 PM91 °FPassing clouds.10 mph49%29.83 "Hg4 mi
1:00 PM90 °FPassing clouds.9 mph52%29.89 "Hg5 mi
12:00 PM90 °FPassing clouds.9 mph52%29.92 "HgN/A
11:00 AM86 °FPassing clouds.9 mph52%29.95 "HgN/A
10:00 AM84 °FPassing clouds.9 mph62%29.98 "Hg5 mi
9:00 AM81 °FClear.7 mph66%29.98 "Hg6 mi
8:00 AM77 °FPassing clouds.1 mph74%29.95 "Hg5 mi
7:00 AM75 °FThunderstorms. Passing clouds.8 mph74%29.92 "Hg4 mi
Weather by CustomWeather, © 2015

See weather overviewHow to use our weather pages